Simultaneous Nadir Overpasses (SNOs) Predictions

Prediction of SNOs between NOAA-20 and NOAA-19 Satellite Orbit:

Table of predicted SNOs for the next 14.0 days since TLE Epoch: 11/28/2020
Index Date (NOAA-20) Time (NOAA-20) Lat,Lon (NOAA-20) SZA (NOAA-20 ) Date (NOAA-19) Time (NOAA-19) Lat,Lon (NOAA-19) SZA (NOAA-19 ) Distance(km) Time Diff (sec)
1 12/11/2020 23:49:19 78.76, 153.58 102.98 12/11/2020 23:48:06 78.73, 152.67 103.06 20.10 73
2 12/12/2020 00:40:05 -78.81, -39.44 76.95 12/12/2020 00:39:06 -78.83, -39.35 76.91 2.79 59
3 12/12/2020 01:30:51 78.83, 127.71 103.10 12/12/2020 01:30:04 78.81, 127.78 103.09 3.01 47
4 12/12/2020 02:21:35 -78.81, -64.83 76.94 12/12/2020 02:21:07 -78.81, -64.99 76.91 3.48 28
5 12/12/2020 03:12:21 78.84, 102.31 103.11 12/12/2020 03:12:04 78.83, 102.40 103.10 2.24 17
6 12/12/2020 04:03:06 -78.85, -90.46 76.87 12/12/2020 04:03:07 -78.83, -90.37 76.90 3.44 1
7 12/12/2020 04:53:51 78.84, 76.92 103.12 12/12/2020 04:54:04 78.84, 77.03 103.11 2.31 13
8 12/12/2020 05:44:36 -78.85,-115.86 76.86 12/12/2020 05:45:07 -78.84,-115.76 76.89 2.59 31
9 12/12/2020 06:35:21 78.84, 51.53 103.13 12/12/2020 06:36:04 78.86, 51.65 103.12 3.15 43
10 12/12/2020 07:26:06 -78.86,-141.25 76.85 12/12/2020 07:27:07 -78.86,-141.14 76.88 2.36 61
11 12/12/2020 08:16:51 78.85, 26.13 103.14 12/12/2020 08:18:05 78.84, 26.01 103.12 2.57 74
